轨道通信卫星FM10星 (ORBCOMM FM10)

导读

ORBCOMM FM 10也叫轨道通信FM10(A6),由美国轨道科学公司研制,是ORBCOMM低轨卫星通信系统的成员,1997年12月23日用飞马座-XL运载火箭于HAPS沃发射。它运行在720km×720km近地轨道,倾角45度,发射质量仅40千克,设计寿命4年,主要提供全球低速率的数据通信服务。

Basic Information
目录编号:
25113
目录名称:
ORBCOMM FM 10
国际标识:
1997-084B
轨道中心:
EARTH
卫星名称:
轨道通信卫星FM10星
卫星全名:
轨道通信卫星FM10星 (ORBCOMM FM10)
卫星状态:
在轨 (已飞行10398 天)
发射日期:
1997-12-23 UTC
国别 :
(ORB)
星等 :
--
Orbit Information
数据来源 国际轨道数据 AOE轨道数据
星历时间 2026-06-11T19:41:25+0800
1天前
查看轨道信息
2026-06-12T00:00:00+0800
1天前
查看轨道信息
半长轴 7113.745km 7113.753km
偏心率 0.0004479 0.0004431
轨道倾角 45.015° 45.014°
近地点辐角 260.564° 261.388°
升交点赤经 84.112° 83.249°
平近点角 99.471° 314.934°
近地点 732.421km 732.463km
远地点 738.795km 738.769km
周期 99.519分钟 99.519分钟
每日圈数 14.46956 14.469536
Detailed Information
固有亮度:
8
最大亮度:
6.9
平衡模式:
三轴稳定
覆盖范围:
全球
运营商:
轨道通信公司
运营商所在国:
美国
制造商(研发单位):
轨道ATK公司
制造商所在国:
美国
使用方式:
暂无
Satellite Introduction
轨道通信FM(Orbcomm FM)是一系列低地球轨道通信卫星,由美国卫星通信公司 Orbcomm运营。 截至2015年12月,已有63颗此类卫星绕地球运行。该卫星已退役。
2D Orbit Map
3D Orbit Map
Orbit Altitude Analysis Chart
Orbit Inclination Analysis Chart
Orbit Comprehensive Analysis Chart
View Comprehensive Chart